{"data":{"norad_id":61742,"intl_designator":"2024-199H","name":"SITRO-AIS 23","alt_names":[],"object_type":"PAYLOAD","status":"ACTIVE","operator":null,"country":"CIS","launch_date":"2024-11-04","launch_site_code":"VOSTO","launch_vehicle":null,"mission":null,"orbit_class":"UNKNOWN","rcs_meters":null,"size_class":null,"mass_kg":null,"dimensions":null,"purposes":[],"wikipedia_slug":null,"has_3d_model":false,"image_url":null,"decayed_at":null,"tle_current":{"epoch":"2026-05-25T03:31:03.175392Z","epoch_age_seconds":62057,"freshness":"FRESH","line1":"1 61742U 24199H   26145.14656453  .00002176  00000+0  19936-3 0  9993","line2":"2 61742  97.3262 344.6871 0013429 136.7380 223.4900 14.95801124128322","mean_motion":14.95801124,"eccentricity":0.0013429,"inclination_deg":97.3262,"raan_deg":344.6871,"arg_perigee_deg":136.738,"mean_anomaly_deg":223.49,"bstar":0.00019936,"rev_number":12832,"period_min":96.269482412824,"perigee_km":570.54331641795,"apogee_km":589.23117794102,"semimajor_km":6958.0242471795,"source":"CELESTRAK","updated_at":"2026-05-25T13:38:02.531469Z"}}}